Location: Gwatt
(46.7204°N, 7.6223°E)
Time: 07:40:17
(UTC+00:00)

Vanguard 2 - Pass Details

Date: 30 January 2021
Orbit: 552 x 2938 km, 32.9° (Epoch: 24 February)

Event Time Altitude Azimuth Distance (km) Brightness Sun altitude
Rises 14:12:12 0° 226° (SW) 3,258 12.4 17.5°
Reaches altitude 10° 14:16:36 10° 192° (SSW) 2,005 11.0 17.1°
Maximum altitude 14:17:57 11° 174° (S) 1,855 10.3 16.9°
Drops below altitude 10° 14:19:14 10° 155° (SSE) 1,881 10.0 16.8°
Sets 14:22:55 0° 118° (ESE) 2,711 10.2 16.4°
